This demonstration page uses our WeatherBlox Daily Observations layout. Learn more.

Left ArrowRight Arrow

40.92945, -100.16068

Hourly Observations for April 7, 2015

Temp ( °F °C ) Dew Point ( °F °C ) Humidity (%) Winds ( mph kmh ) Pressure ( in mb ) Visibility ( mi km ) Precip ( " mm )
12:15 am 00:15 Cloudy with Mist and Fog 50 10.1 49 9.5 96 96 E 14 22 29.80 1009 3 5 N/A
12:35 am 00:35 Cloudy with Mist and Fog 50 10 49 9.5 97 97 E 17 28 29.80 1009 3 5 N/A
12:55 am 00:55 Cloudy with Mist and Fog 50 10 49 9.5 97 97 E 14 22 29.80 1009 3 5 N/A
1:15 am 01:15 Cloudy with Mist and Fog 50 10.1 49 9.5 96 96 E 16 26 29.80 1009 3 5 N/A
1:35 am 01:35 Cloudy with Mist and Fog 50 10.1 49 9.5 96 96 E 15 24 29.80 1009 3 4 N/A
1:55 am 01:55 Cloudy with Mist and Fog 50 10 49 9.5 97 97 E 20 31 29.77 1008 3 5 N/A
2:15 am 02:15 Cloudy with Mist and Fog 50 10 49 9.5 97 97 E 17 28 29.77 1008 2 3 N/A
2:35 am 02:35 Cloudy with Mist and Fog 50 10 49 9.5 97 97 E 16 26 29.77 1008 1 2 N/A
2:55 am 02:55 Cloudy with Mist and Fog 50 10 49 9.5 97 97 E 17 28 29.77 1008 3 4 N/A
3:15 am 03:15 Cloudy with Mist and Fog 50 10 49 9.4 96 96 ENE 15 24 29.77 1008 4 6 N/A
3:35 am 03:35 Cloudy with Mist and Fog 50 10 49 9.3 95 95 NE 14 22 29.80 1009 4 6 N/A
3:55 am 03:55 Cloudy with Mist and Fog 50 10 49 9.3 95 95 NNE 8 13 29.83 1010 4 6 N/A
4:15 am 04:15 Cloudy with Drizzle 50 9.8 49 9.2 96 96 NE 10 17 29.80 1009 5 8 N/A
4:35 am 04:35 Cloudy 49 9.6 48 9 96 96 NE 14 22 29.80 1009 7 11 N/A
4:55 am 04:55 Cloudy with Mist and Fog 49 9.6 48 9 96 96 NNE 8 13 29.83 1010 5 8 N/A
5:15 am 05:15 Cloudy with Mist and Fog 49 9.6 48 9 96 96 NNE 13 20 29.83 1010 5 8 N/A
5:35 am 05:35 Cloudy 49 9.5 48 8.7 95 95 NNE 10 17 29.83 1010 7 11 N/A
5:55 am 05:55 Cloudy 49 9.4 48 8.7 95 95 NNE 14 22 29.83 1010 7 11 N/A
6:15 am 06:15 Cloudy 49 9.2 47 8.5 95 95 NE 13 20 29.83 1010 10 16 N/A
6:35 am 06:35 Cloudy 49 9.2 47 8.5 95 95 NNE 12 19 29.83 1010 7 11 N/A
6:55 am 06:55 Cloudy with Mist and Fog 47 8.5 46 7.6 94 94 N 16 26 29.88 1012 5 8 N/A
7:15 am 07:15 Cloudy with Mist and Fog 46 7.7 44 6.8 94 94 N 16 26 29.91 1013 4 6 N/A
7:35 am 07:35 Cloudy with Mist and Fog 45 7.3 44 6.4 94 94 NNE 15 24 29.91 1013 3 4 N/A
7:55 am 07:55 Cloudy with Mist and Fog 45 7 43 6.2 95 95 NNE 14 22 29.91 1013 5 8 N/A
8:15 am 08:15 Cloudy 44 6.8 43 6 95 95 NNE 14 22 29.94 1014 7 11 N/A
8:35 am 08:35 Cloudy with Mist and Fog 44 6.8 43 6 95 95 N 12 19 29.94 1014 5 8 N/A
8:55 am 08:55 Cloudy with Mist and Fog 44 6.7 43 6 95 95 N 12 19 29.94 1014 4 6 N/A
9:15 am 09:15 Cloudy with Mist and Fog 44 6.8 43 6 95 95 N 12 19 29.97 1015 5 8 N/A
9:35 am 09:35 Cloudy with Mist and Fog 45 7 43 6.1 94 94 N 10 17 29.94 1014 3 5 N/A
9:55 am 09:55 Cloudy with Mist and Fog 45 7 43 6.1 94 94 N 10 17 29.97 1015 3 5 N/A
10:15 am 10:15 Cloudy with Mist and Fog 45 7 43 6.2 95 95 N 8 13 29.97 1015 3 5 N/A
10:35 am 10:35 Cloudy with Mist and Fog 45 7.1 43 6.2 94 94 N 9 15 29.97 1015 4 6 N/A
10:55 am 10:55 Cloudy with Mist and Fog 45 7.2 44 6.4 95 95 NNE 7 11 29.97 1015 4 6 N/A
11:15 am 11:15 Cloudy 46 7.6 44 6.7 94 94 N 9 15 29.97 1015 7 11 N/A
11:35 am 11:35 Cloudy 46 8 45 7 93 93 N 9 15 29.97 1015 10 16 N/A
11:55 am 11:55 Cloudy 47 8.2 45 7 92 92 N 12 19 29.97 1015 10 16 N/A
12:15 pm 12:15 Cloudy 47 8.6 46 7.5 93 93 N 10 17 29.97 1015 10 16 N/A
12:35 pm 12:35 Cloudy 48 9 46 7.5 90 90 N 10 17 29.97 1015 10 16 N/A
12:55 pm 12:55 Cloudy 49 9.4 46 8 91 91 N 14 22 29.97 1015 10 16 N/A
1:15 pm 13:15 Cloudy 49 9.6 46 8 90 90 N 12 19 29.94 1014 10 16 N/A
1:35 pm 13:35 Cloudy 49 9.5 46 7.7 89 89 N 9 15 29.94 1014 10 16 N/A
1:55 pm 13:55 Cloudy 50 10 46 8 88 88 N 9 15 29.94 1014 10 16 N/A
2:15 pm 14:15 Cloudy 51 10.5 47 8.2 86 86 N 9 15 29.94 1014 10 16 N/A
2:35 pm 14:35 Cloudy 51 10.7 47 8.2 85 85 N 8 13 29.94 1014 10 16 N/A
2:55 pm 14:55 Cloudy 53 11.5 47 8.6 83 83 N 8 13 29.94 1014 10 16 N/A
3:15 pm 15:15 Cloudy 53 11.5 47 8.5 82 82 NNE 10 17 29.94 1014 10 16 N/A
3:35 pm 15:35 Cloudy 54 12 48 8.7 80 80 N 10 17 29.94 1014 10 16 N/A
3:55 pm 15:55 Cloudy 54 12.1 48 8.7 80 80 NNE 9 15 29.94 1014 10 16 N/A
4:15 pm 16:15 Cloudy 54 12.1 47 8.5 79 79 N 10 17 29.94 1014 10 16 N/A
4:35 pm 16:35 Cloudy 54 12.2 47 8.3 77 77 NNE 12 19 29.94 1014 10 16 N/A
4:55 pm 16:55 Cloudy 54 12.2 47 8.2 77 77 NNE 9 15 29.94 1014 10 16 N/A
5:15 pm 17:15 Cloudy 55 12.6 47 8.2 75 75 NNE 9 15 29.88 1012 10 16 N/A
5:35 pm 17:35 Cloudy 55 12.7 47 8.1 74 74 NNE 8 13 29.91 1013 10 16 N/A
5:55 pm 17:55 Mostly Cloudy 55 13 47 8.3 73 73 NNE 10 17 29.88 1012 10 16 N/A
6:15 pm 18:15 Partly Cloudy 55 12.8 46 8 73 73 NE 8 13 29.88 1012 10 16 N/A
6:35 pm 18:35 Partly Cloudy 54 12.4 47 8.1 75 75 NE 9 15 29.91 1013 10 16 N/A
6:55 pm 18:55 Partly Cloudy 54 12.1 46 8 76 76 NE 10 17 29.91 1013 10 16 N/A
7:15 pm 19:15 Mostly Cloudy 53 11.6 46 7.7 77 77 ENE 10 17 29.91 1013 10 16 N/A
7:35 pm 19:35 Cloudy 52 11.2 46 7.5 78 78 ENE 10 17 29.94 1014 10 16 N/A
7:55 pm 19:55 Cloudy 51 10.6 45 7.2 80 80 NE 12 19 29.94 1014 10 16 N/A
8:15 pm 20:15 Cloudy 50 10 45 7 82 82 NE 12 19 29.94 1014 10 16 N/A
8:35 pm 20:35 Cloudy 49 9.5 44 6.8 83 83 NE 13 20 29.94 1014 10 16 N/A
8:55 pm 20:55 Cloudy 48 8.8 44 6.5 86 86 NE 15 24 29.97 1015 10 16 N/A
9:15 pm 21:15 Cloudy 47 8.2 43 6.3 88 88 NE 14 22 29.97 1015 10 16 N/A
9:35 pm 21:35 Cloudy 46 7.7 43 6.3 91 91 ENE 13 20 29.97 1015 7 11 N/A
9:55 pm 21:55 Cloudy with Mist and Fog 46 7.5 43 6.2 92 92 ENE 13 20 30.00 1016 4 6 N/A
10:15 pm 22:15 Cloudy with Mist and Fog 45 7.1 43 6 93 93 ENE 10 17 30.00 1016 5 8 N/A
10:35 pm 22:35 Cloudy with Mist and Fog 44 6.9 43 5.9 93 93 E 9 15 30.00 1016 3 5 N/A
10:55 pm 22:55 Cloudy with Mist and Fog 44 6.8 43 6 95 95 E 9 15 30.00 1016 3 5 N/A
11:15 pm 23:15 Cloudy with Mist and Fog 43 6.3 42 5.5 95 95 ENE 14 22 30.00 1016 3 5 N/A
11:35 pm 23:35 Cloudy with Mist and Fog 43 6.2 42 5.5 95 95 ENE 14 22 30.00 1016 3 5 N/A
11:55 pm 23:55 Cloudy with Mist and Fog 43 6.1 42 5.3 95 95 NE 12 19 30.00 1016 3 5 N/A

Powered by AerisWeather